Location: Morlupo
(42.1333°N, 12.5000°E)
Time: 15:49:36
(UTC+00:00)

USA 186 - Pass Details

Date: 18 September 2020
Orbit: 261 x 425 km, 96.9° (Epoch: 12 October)

Event Time Altitude Azimuth Distance (km) Brightness Sun altitude
Exits shadow 18:49:23 47° 173° (S) 539 2.0 -18.2°
Maximum altitude 18:50:11 86° 256° (WSW) 407 1.6 -18.3°
Drops below altitude 10° 18:53:23 10° 348° (NNW) 1,493 4.9 -18.9°
Sets 18:55:26 0° 349° (NNW) 2,380 6.0 -19.2°
